User: anonymous   Login
Location: Lawrence
(38.9720°N, 95.2350°W)
Time: 16:30:13
(UTC-06:00)
Language:

JAS-1B - Orbit

View from above orbital plane
View from above orbital plane
View from above satellite
View from above satellite

Ground track
Ground track

The orbit data is extracted from the following two-line orbital elements,

1 20480U 90013C   14328.09038494  .00000008  00000-0  94244-4 0  9076
2 20480 099.0675 261.2915 0540249 351.7824 069.6481 12.83399735161644
Epoch (UTC): 24 November 2014 02:10:09
Eccentricity: 0.0540249
inclination: 99.0675°
perigee height: 911 km
apogee height: 1744 km
right ascension of ascending node: 261.2915°
argument of perigee: 351.7824°
revolutions per day: 12.83399735
mean anomaly at epoch: 69.6481°
orbit number at epoch: 16164

The dashed part of the orbit path shows where the satellite is in the earth's shadow,  

DLR